Location: Newark
(44.9861°N, 0.2536°E)
Time: 22:31:17
(UTC+00:00)

HuskySat-1 - Pass Details

Date: 19 July 2020
Orbit: 457 x 471 km, 51.6° (Epoch: 10 August)

Event Time Altitude Azimuth Distance (km) Brightness Sun altitude
Rises 03:24:14 0° 296° (WNW) 2,489 ? -10.2°
Reaches altitude 10° 03:26:28 10° 288° (WNW) 1,608 ? -9.9°
Maximum altitude 03:29:51 39° 219° (SW) 704 ? -9.5°
Drops below altitude 10° 03:33:14 10° 149° (SSE) 1,593 ? -9.0°
Sets 03:35:26 0° 142° (SE) 2,461 ? -8.7°
